EA3FQO-2 Weather Reports


time (UTC)temp
C
wind
direction
speed
KPH
gust
KPH
rain 1hr
cm
rain 24hr
cm
rain mn
cm
humidity
%
barometer
mb
20260506174505 11 341 0.0 6.4 0.00 0.10 0.00 82 1007.9
20260506173005 11 17 3.2 6.4 0.00 0.10 0.00 82 1007.8
20260506171504 11 72 0.0 8.0 0.00 0.10 0.00 80 1007.7
20260506170005 11 70 4.8 11.3 0.00 0.10 0.00 77 1007.4
20260506164505 12 9 6.4 11.3 0.00 0.10 0.00 71 1007.0
20260506161504 14 85 3.2 8.0 0.00 0.10 0.00 67 1006.5
20260506160005 15 58 1.6 9.7 0.00 0.10 0.00 66 1006.3
20260506154505 15 87 1.6 9.7 0.00 0.10 0.00 64 1006.2
20260506151504 18 4 1.6 8.0 0.00 0.10 0.00 50 1005.9
20260506150005 22 330 3.2 6.4 0.00 0.10 0.00 43 1005.9
20260506144504 21 3 1.6 8.0 0.00 0.10 0.00 47 1005.9
20260506143004 20 321 1.6 4.8 0.00 0.10 0.00 50 1005.7
20260506141504 17 100 1.6 9.7 0.00 0.10 0.00 53 1006.0
20260506134504 20 22 0.0 4.8 0.00 0.10 0.00 41 1006.2
20260506133004 20 321 3.2 8.0 0.00 0.10 0.00 40 1006.4
20260506131504 21 340 3.2 6.4 0.00 0.10 0.00 46 1006.7
20260506130005 17 297 0.0 6.4 0.00 0.10 0.00 53 1006.8
20260506124504 17 6 3.2 9.7 0.00 0.10 0.00 44 1006.9
20260506123004 18 348 1.6 11.3 0.00 0.10 0.00 41 1006.8
20260506121504 18 281 3.2 12.9 0.00 0.10 0.00 41 1006.9
20260506120005 19 312 1.6 6.4 0.00 0.10 0.00 40 1006.7
20260506114504 20 357 3.2 11.3 0.00 0.10 0.00 40 1006.8
20260506113004 20 264 1.6 6.4 0.00 0.10 0.00 43 1007.1
20260506111504 18 27 0.0 6.4 0.00 0.10 0.00 44 1007.1
20260506110004 19 295 3.2 3.2 0.00 0.10 0.00 44 1007.3
20260506104504 18 9 8.0 11.3 0.00 0.10 0.00 50 1007.4
20260506103004 18 354 1.6 4.8 0.00 0.10 0.00 50 1007.6
20260506101504 18 42 3.2 4.8 0.00 0.10 0.00 46 1007.7
20260506100005 17 352 0.0 6.4 0.00 0.10 0.00 53 1007.8
20260506094504 16 309 3.2 4.8 0.00 0.10 0.00 61 1007.8
20260506093004 16 307 0.0 4.8 0.00 0.10 0.00 69 1007.9
20260506091504 15 302 0.0 4.8 0.00 0.10 0.00 70 1007.8
20260506090004 15 0 0.0 0.0 0.00 0.10 0.00 80 1007.8
20260506084504 12 0 0.0 0.0 0.00 0.10 0.00 96 1007.8
20260506083006 11 0 0.0 0.0 0.00 0.10 0.00 99 1007.7
20260506081506 11 0 0.0 0.0 0.00 0.10 0.00 99 1007.5
20260506073006 9 0 0.0 0.0 0.00 0.10 0.00 99 1007.4
20260506061506 6 0 0.0 0.0 0.00 0.10 0.00 99 1007.4
20260506044505 4 0 0.0 0.0 0.00 0.10 0.00 99 1006.5
20260506043005 4 0 0.0 0.0 0.00 0.10 0.00 99 1006.3
20260506041505 4 0 0.0 0.0 0.00 0.10 0.00 99 1006.4
20260506033006 5 0 0.0 0.0 0.00 0.10 0.00 99 1006.1
20260506031506 5 0 0.0 0.0 0.00 0.10 0.00 99 1006.2
20260506030006 5 0 0.0 0.0 0.00 0.10 0.00 99 1006.1
20260506024505 5 0 0.0 0.0 0.00 0.10 0.00 99 1006.4
20260506023006 5 0 0.0 0.0 0.00 0.10 0.00 99 1006.2
20260506021506 5 0 0.0 0.0 0.00 0.10 0.00 99 1006.1
20260506011506 6 0 0.0 0.0 0.00 0.10 0.00 99 1006.3
20260506004505 6 0 0.0 0.0 0.00 0.10 0.00 99 1006.4
20260506003005 6 0 0.0 0.0 0.00 0.10 0.00 99 1006.4
20260506001505 6 0 0.0 0.0 0.00 0.10 0.00 99 1006.6
20260505234505 6 0 0.0 0.0 0.00 0.10 0.00 99 1006.7
20260505231505 7 0 0.0 0.0 0.00 0.10 0.00 99 1006.9
20260505230005 7 0 0.0 0.0 0.00 0.10 0.00 99 1006.9
20260505224505 7 0 0.0 0.0 0.00 0.10 0.00 99 1006.9
20260505223005 8 0 0.0 0.0 0.00 0.10 0.00 98 1007.1
20260505221505 8 0 0.0 0.0 0.00 0.10 0.00 98 1007.2
20260505214505 8 0 0.0 0.0 0.00 0.10 0.10 97 1007.6
20260505213005 8 0 0.0 0.0 0.00 0.10 0.10 96 1007.6
20260505211505 8 0 0.0 0.0 0.00 0.10 0.10 96 1007.5
20260505210005 8 0 0.0 0.0 0.00 0.10 0.10 96 1007.4
20260505204505 8 0 0.0 0.0 0.00 0.10 0.10 95 1007.1
20260505200005 9 0 0.0 0.0 0.00 0.10 0.10 94 1006.6
20260505194505 9 0 0.0 0.0 0.03 0.10 0.10 93 1006.6
20260505193004 9 0 0.0 0.0 0.10 0.10 0.10 91 1006.5
20260505191505 10 0 0.0 0.0 0.10 0.10 0.10 89 1006.4
20260505190005 10 0 0.0 0.0 0.10 0.10 0.10 86 1006.3
20260505184504 11 155 0.0 4.8 0.08 0.08 0.08 81 1005.3
20260505181505 12 236 3.2 9.7 0.00 0.00 0.00 63 1006.3
20260505180005 13 221 3.2 4.8 0.00 0.00 0.00 80 1005.9